[[{"header":{"parameterUnit":"m.s-1","parameterCategory":1,"la1":30.2991,"la2":30.254,"lo1":-89.0895,"lo2":-89.0444,"dy":0.0017,"dx":0.0017,"nx":28,"ny":28,"refTime":"2025-08-15T09:00:00:Z","depth":0,"parameterNumber":2,"parameterNumberName":"U-component_of_WINDS"},"data":[0,0,0,0,0,0,0,0,0,0,0,0,0,0,0,0,0,0,0,0,0,0,0,0,0,0,0,0,0,0,0,0,0,0,0,0,0,0,0,0,0,0,0,0,0,0,0,0,0,0,0,0,0,0,0,0,0,0,1.5032,1.5032,0,1.5068,1.5069,1.5069,1.4969,1.4966,1.4963,1.496,1.5001,1.5005,1.5009,0,0,0,0,0,0,0,0,0,0,0,0,0,1.4877,1.4881,1.5032,1.5032,1.5033,1.5068,1.5069,1.5069,1.497,1.4966,1.4962,1.4959,1.5,1.5004,1.5009,0,0,0,0,0,0,0,0,0,0,0,0,0,1.4933,1.4882,1.5032,1.4987,1.4983,1.5068,1.5069,1.507,1.4971,1.4966,1.4961,1.4957,1.4998,1.5004,1.501,1.514,0,0,1.5028,1.5031,0,0,0,0,0,0,0,0,1.493,1.4938,1.4993,1.499,1.4986,1.5009,1.5029,1.5093,1.4972,1.4976,1.496,1.4955,1.5008,1.5013,1.503,1.5142,1.5144,1.5029,1.5032,1.5035,1.5036,0,0,0,0,0,0,0,1.4926,1.4936,1.5046,1.4994,1.499,1.4966,1.4969,1.5041,1.5018,1.4975,1.4968,1.4973,1.5005,1.5024,1.503,1.5144,1.5028,1.5034,1.5037,1.504,1.5365,1.537,0,0,0,0,0,0,1.4927,1.4934,1.5045,1.5047,1.4946,1.4973,1.4976,1.5007,1.5016,1.5013,1.4977,1.4968,1.5016,1.5023,1.5031,1.5184,1.5035,1.504,1.5044,1.536,1.5366,1.5371,0,0,0,0,0,0,1.4924,1.4938,1.5044,1.4989,1.5,1.498,1.5016,1.501,1.5029,1.5018,1.5014,1.5001,1.5013,1.5023,1.5113,1.5184,1.5043,1.5048,1.5354,1.5362,1.5369,1.5491,0,0,0,0,0,0,1.492,1.4938,1.4987,1.499,1.5003,1.5125,1.502,1.5014,1.5039,1.5028,1.5039,1.5037,1.501,1.5105,1.5119,1.519,1.5053,1.5347,1.5357,1.5366,1.5481,1.5502,1.552,0,0,0,0,0,1.4915,1.5021,1.499,1.5004,1.5064,1.5129,1.5137,1.5103,1.5046,1.5095,1.5087,1.5036,1.5174,1.5115,1.513,1.5204,1.5343,1.5355,1.5366,1.5472,1.5498,1.5519,0,0,0,0,0,0,1.5027,1.502,1.4986,1.5095,1.5114,1.5112,1.5173,1.5132,1.5167,1.5156,1.5113,1.5116,1.5215,1.5218,1.5153,1.533,1.5249,1.5264,1.5324,1.5349,1.5368,1.5365,1.5058,0,0,0,0,0,1.5064,1.5117,1.5108,1.5206,1.5217,1.5194,1.5221,1.5193,1.5211,1.5218,1.5217,1.5237,1.5284,1.5317,1.536,1.5481,1.5481,1.5538,1.5558,1.5574,1.5588,1.5651,1.5676,1.5409,1.5409,1.5408,0,0,1.5142,1.5145,1.5181,1.5228,1.5239,1.5295,1.5201,1.5264,1.5306,1.5228,1.5313,1.5314,1.5333,1.5439,1.5486,1.5445,1.5662,1.5589,1.5602,1.5606,1.5665,1.5691,1.5713,1.5416,1.5415,1.5414,0,0,1.5312,1.532,1.5401,1.5414,1.543,1.5414,1.5434,1.5439,1.5436,1.552,1.5463,1.5512,1.5595,1.561,1.5629,1.5805,1.5759,1.582,1.5923,1.5986,1.6007,1.6025,1.6087,1.611,1.5834,1.5834,1.5834,0,1.5407,1.5488,1.5449,1.5516,1.5538,1.5469,1.5552,1.5566,1.5597,1.5614,1.5568,1.5669,1.5678,1.5786,1.5829,1.5847,1.5868,1.5819,1.6007,1.6025,1.6041,1.61,1.6124,1.5841,1.584,1.584,1.5839,0,1.5603,1.5661,1.5725,1.5755,1.5785,1.5859,1.5832,1.5867,1.5836,1.5826,1.5912,1.592,1.5962,1.5986,1.5958,1.6091,1.6065,1.6013,1.5931,1.6075,1.6129,1.6151,1.5852,1.5849,1.5847,1.5845,0,0,1.5845,1.5852,1.5876,1.5888,1.5902,1.5946,1.6017,1.6058,1.6089,1.6112,1.6171,1.6243,1.6195,1.6216,1.6189,1.6244,1.6382,1.6185,1.6185,1.6221,1.6528,1.6567,1.6593,1.6351,1.6356,1.6359,1.6526,0,1.6012,1.6134,1.61,1.6222,1.6274,1.6209,1.6271,1.6287,1.6279,1.6322,1.6313,1.6364,1.6297,1.631,1.6361,1.6354,1.6443,1.6342,1.6406,1.6409,1.6403,1.6622,1.6663,1.682,1.6547,1.6551,1.6554,0,1.6223,1.6254,1.6381,1.6384,1.6405,1.6462,1.6496,1.6538,1.6555,1.6545,1.6569,1.653,1.6601,1.6518,1.6615,1.6547,1.6572,1.6572,1.6578,1.6582,1.649,1.6632,1.687,1.6893,1.6587,1.6584,1.6582,0,1.6386,1.6459,1.6544,1.6557,1.6564,1.6605,1.661,1.6621,1.6648,1.6678,1.6695,1.6734,1.6755,1.6787,1.676,1.6702,1.6861,1.6776,1.6855,1.6856,1.6891,1.689,1.7136,1.6908,1.6908,1.6908,1.6907,0,1.6576,1.6656,1.6617,1.6669,1.6757,1.6718,1.6806,1.6804,1.6814,1.6865,1.6812,1.6861,1.6823,1.6869,1.6849,1.6932,1.6942,1.6937,1.693,1.6941,1.6942,1.6956,1.6944,1.6914,1.6912,1.6911,1.691,0,1.6773,1.675,1.6838,1.6837,1.6838,1.6903,1.6902,1.6951,1.6938,1.7004,1.7017,1.6998,1.7049,1.7025,1.708,1.7066,1.7173,1.7152,1.7167,1.7162,1.7242,1.7235,1.7506,1.754,1.7291,1.7293,1.7295,0,1.6895,1.6955,1.696,1.6989,1.6998,1.7047,1.7073,1.7037,1.7067,1.7089,1.7135,1.7182,1.7217,1.7302,1.7294,1.7335,1.7315,1.7407,1.7321,1.7329,1.7315,1.7312,1.7317,1.7425,1.7427,1.743,1.7432,0,1.7114,1.71,1.7139,1.7175,1.7208,1.7235,1.7257,1.7285,1.7249,1.7285,1.7337,1.7364,1.7419,1.7466,1.7501,1.7507,1.7464,1.7459,1.7479,1.7491,1.7497,1.7494,1.7214,1.7453,1.7451,1.7449,1.7448,1.7447,1.7277,1.7327,1.7338,1.7384,1.7396,1.7418,1.7463,1.7456,1.7498,1.7538,1.7515,1.7575,1.7589,1.7633,1.7645,1.7691,1.7655,1.7685,1.7692,1.77,1.771,1.749,1.7698,1.7697,1.7697,1.7696,1.7696,0,1.7493,1.7497,1.7539,1.7571,1.7607,1.7562,1.7585,1.7618,1.7671,1.7687,1.7723,1.7782,1.7827,1.7822,1.7863,1.7902,1.7883,1.7914,1.791,1.7912,1.7741,1.7718,1.7928,1.7928,1.7928,1.7928,1.7928,1.7928,1.761,1.7691,1.7678,1.7765,1.7768,1.7826,1.7842,1.7862,1.7875,1.7943,1.7979,1.7975,1.7983,1.8025,1.8064,1.8061,1.8079,1.8117,1.8108,1.7947,1.7924,1.7902,1.7881,1.8122,1.8122,1.8275,1.8276,1.8277]},{"header":{"parameterUnit":"m.s-1","parameterCategory":1,"la1":30.2991,"la2":30.254,"lo1":-89.0895,"lo2":-89.0444,"dy":0.0017,"dx":0.0017,"nx":28,"ny":28,"refTime":"2025-08-15T09:00:00:Z","depth":0,"parameterNumber":3,"parameterNumberName":"V-component_of_WINDS"},"data":[0,0,0,0,0,0,0,0,0,0,0,0,0,0,0,0,0,0,0,0,0,0,0,0,0,0,0,0,0,0,0,0,0,0,0,0,0,0,0,0,0,0,0,0,0,0,0,0,0,0,0,0,0,0,0,0,0,0,0.1365,0.1365,0,0.1377,0.1377,0.1377,0.1375,0.1375,0.1375,0.1375,0.1387,0.1387,0.1388,0,0,0,0,0,0,0,0,0,0,0,0,0,0.1339,0.1339,0.1365,0.1365,0.1365,0.1377,0.1377,0.1377,0.1375,0.1375,0.1375,0.1375,0.1386,0.1387,0.1388,0,0,0,0,0,0,0,0,0,0,0,0,0,0.135,0.134,0.1365,0.1366,0.1366,0.1377,0.1377,0.1377,0.1376,0.1375,0.1375,0.1375,0.1386,0.1387,0.1388,0.1398,0,0,0.139,0.139,0,0,0,0,0,0,0,0,0.135,0.1351,0.1365,0.1366,0.1366,0.1374,0.1372,0.1384,0.1376,0.1372,0.1375,0.1375,0.1383,0.1384,0.1387,0.1399,0.1399,0.139,0.139,0.1391,0.1391,0,0,0,0,0,0,0,0.1349,0.1351,0.137,0.1366,0.1366,0.1365,0.1366,0.1374,0.1379,0.1372,0.1372,0.1374,0.1383,0.1386,0.1387,0.1399,0.139,0.1391,0.1391,0.1391,0.1418,0.1419,0,0,0,0,0,0,0.1348,0.135,0.1369,0.137,0.1357,0.1366,0.1367,0.1372,0.1379,0.1379,0.1374,0.1373,0.1385,0.1386,0.1387,0.1399,0.1391,0.1391,0.1392,0.1418,0.1419,0.1419,0,0,0,0,0,0,0.1348,0.135,0.1369,0.136,0.1362,0.1366,0.1372,0.1372,0.1375,0.138,0.1381,0.1376,0.1385,0.1386,0.1395,0.1399,0.1392,0.1393,0.1418,0.1418,0.1419,0.1423,0,0,0,0,0,0,0.1347,0.135,0.1354,0.136,0.1363,0.1377,0.1372,0.1373,0.1377,0.1376,0.1382,0.1383,0.1384,0.1394,0.1396,0.14,0.1393,0.1418,0.1418,0.1419,0.1422,0.1423,0.1424,0,0,0,0,0,0.1346,0.1355,0.1355,0.1357,0.1369,0.1377,0.1379,0.138,0.1377,0.1381,0.1384,0.1383,0.1398,0.1395,0.1397,0.1402,0.1417,0.1418,0.1419,0.1422,0.1423,0.1424,0,0,0,0,0,0,0.135,0.1356,0.1355,0.1367,0.1372,0.1377,0.1383,0.1382,0.1387,0.1387,0.1388,0.1389,0.1398,0.1401,0.1397,0.1411,0.1407,0.1408,0.1409,0.141,0.1411,0.1411,0.1394,0,0,0,0,0,0.1353,0.1359,0.1364,0.1374,0.1376,0.1379,0.1383,0.1383,0.1388,0.139,0.1393,0.1397,0.1403,0.1407,0.1412,0.1422,0.1423,0.1426,0.1427,0.1428,0.1429,0.1433,0.1434,0.1421,0.1421,0.1421,0,0,0.1358,0.1362,0.1366,0.1375,0.1378,0.1384,0.1381,0.1388,0.1392,0.1391,0.1399,0.1401,0.1406,0.1415,0.1419,0.1418,0.1433,0.1429,0.1429,0.143,0.1434,0.1435,0.1436,0.1421,0.1421,0.1421,0,0,0.137,0.1374,0.1382,0.1385,0.139,0.1392,0.1393,0.1398,0.14,0.1408,0.1407,0.1411,0.1422,0.1424,0.1427,0.1438,0.1437,0.144,0.1445,0.1449,0.145,0.145,0.1453,0.1455,0.1441,0.1441,0.1441,0,0.1375,0.1385,0.1386,0.1393,0.1396,0.1394,0.1402,0.1405,0.1412,0.1414,0.1411,0.1423,0.1426,0.1435,0.1437,0.144,0.1441,0.1439,0.1449,0.145,0.1451,0.1454,0.1455,0.1441,0.1441,0.1441,0.1441,0,0.1391,0.1398,0.1403,0.1409,0.1413,0.142,0.1421,0.1425,0.1424,0.1426,0.1433,0.1437,0.1442,0.1444,0.1444,0.1453,0.1451,0.1449,0.1446,0.1453,0.1455,0.1457,0.1441,0.1441,0.1441,0.1441,0,0,0.1408,0.1413,0.1415,0.1417,0.1421,0.1426,0.1432,0.1437,0.144,0.1444,0.1449,0.1456,0.1454,0.1457,0.1457,0.146,0.1467,0.1458,0.1458,0.1459,0.1475,0.1477,0.1478,0.1466,0.1466,0.1466,0.1475,0,0.142,0.1432,0.1432,0.1442,0.1447,0.1444,0.145,0.1452,0.1453,0.1457,0.1458,0.1463,0.146,0.1461,0.1465,0.1466,0.147,0.1465,0.147,0.147,0.1469,0.148,0.1482,0.1489,0.1476,0.1476,0.1476,0,0.1437,0.1441,0.1451,0.1453,0.1455,0.146,0.1464,0.1468,0.147,0.147,0.1473,0.1472,0.1477,0.1472,0.1479,0.1475,0.1477,0.1477,0.1477,0.1478,0.1474,0.148,0.1492,0.1493,0.1478,0.1478,0.1477,0,0.1447,0.1455,0.1462,0.1464,0.1466,0.1469,0.1471,0.1473,0.1475,0.1478,0.1479,0.1483,0.1485,0.1487,0.1486,0.1483,0.1492,0.1488,0.1492,0.1492,0.1495,0.1495,0.1507,0.1496,0.1496,0.1496,0.1496,0,0.1461,0.1467,0.1466,0.1471,0.1477,0.1476,0.1482,0.1483,0.1485,0.1488,0.1486,0.149,0.1488,0.1491,0.1491,0.1495,0.1496,0.1496,0.1496,0.1496,0.1496,0.1498,0.1497,0.1496,0.1496,0.1496,0.1496,0,0.1474,0.1474,0.1481,0.1482,0.1483,0.1487,0.1488,0.1492,0.1492,0.1496,0.1497,0.1497,0.15,0.1499,0.1503,0.1502,0.1508,0.1507,0.1507,0.1507,0.1511,0.151,0.1524,0.1525,0.1514,0.1514,0.1514,0,0.1483,0.1488,0.1489,0.1491,0.1492,0.1496,0.1498,0.1497,0.1499,0.1501,0.1504,0.1507,0.1509,0.1514,0.1514,0.1516,0.1515,0.1519,0.1515,0.1515,0.1514,0.1514,0.1514,0.152,0.1521,0.1521,0.1521,0,0.1499,0.1498,0.1501,0.1503,0.1506,0.1508,0.151,0.1511,0.151,0.1512,0.1515,0.1517,0.152,0.1522,0.1524,0.1524,0.1522,0.1522,0.1523,0.1523,0.1523,0.1523,0.1509,0.1522,0.1522,0.1522,0.1522,0.1522,0.151,0.1513,0.1514,0.1517,0.1518,0.1519,0.1522,0.1522,0.1524,0.1527,0.1525,0.1528,0.1529,0.1531,0.1531,0.1533,0.1531,0.1533,0.1533,0.1533,0.1533,0.1523,0.1533,0.1533,0.1533,0.1533,0.1533,0,0.1525,0.1524,0.1527,0.1529,0.1531,0.1528,0.153,0.1531,0.1534,0.1535,0.1537,0.1539,0.1541,0.154,0.1542,0.1543,0.1542,0.1543,0.1543,0.1543,0.1535,0.1534,0.1544,0.1544,0.1544,0.1544,0.1544,0.1544,0.1533,0.1538,0.1537,0.1542,0.1541,0.1544,0.1545,0.1546,0.1546,0.1549,0.155,0.155,0.1549,0.155,0.1551,0.1551,0.1551,0.1553,0.1552,0.1545,0.1544,0.1543,0.1542,0.1553,0.1553,0.156,0.156,0.156]}]]